Weather History for KSBO - March, 2013

Change the Weather History Date:

Wednesday, March 20, 2013

  Actual Average (KAGS) Record (KAGS)
Temperature  
Mean Temperature 52 °F 57 °F  
Max Temperature 62 °F 71 °F 91 °F (1907)
Min Temperature 41 °F 43 °F 28 °F (1956)
Degree Days  
Heating Degree Days 14 9  
Month to date heating degree days 215  
Since 1 July heating degree days 2247  
Cooling Degree Days 0 1  
Month to date cooling degree days 6  
Year to date cooling degree days 9  
Growing Degree Days 2 (Base 50)    
Moisture  
Dew Point 31 °F    
Average Humidity 47    
Maximum Humidity 87    
Minimum Humidity 22    
Precipitation  
Precipitation 0.00 in 0.13 in 2.24 in (1875)
Month to date precipitation 2.81  
Year to date precipitation 10.64  
Sea Level Pressure  
Sea Level Pressure 30.01 in    
Wind  
Wind Speed 3 mph (North)    
Max Wind Speed 8 mph    
Max Gust Speed -    
Visibility 10 miles    
Events      
T = Trace of Precipitation, MM = Missing Value Source: NWS Daily Summary

Daily Weather History Graph

Daily Weather History Graph

Search for Another Location

Airport or City:

Trip Planner

Search our weather history database for the weather conditions in past years. The results will help you decide how hot, cold, wet, or windy it might be!

Date:

Astronomy

Mar. 20, 2013 Rise Set
Actual Time 7:32 AM EDT 7:41 PM EDT
Civil Twilight 7:08 AM EDT 8:05 PM EDT
Nautical Twilight 6:39 AM EDT 8:34 PM EDT
Astronomical Twilight 6:10 AM EDT 9:03 PM EDT
Moon 1:32 PM EDT (3/20) 2:54 AM EDT (3/20)
Length of Visible Light 12h 57m
Length of Day
12h 08m
First Quarter, 59% of the Moon is Illuminated
Mar 20
First Quarter
Mar 27
Full
Apr 3
Last Quarter
Apr 10
New
Apr 18
First Quarter

Hourly Weather History & Observations

Time (EDT) Temp. Windchill Dew Point Humidity Pressure Visibility Wind Dir Wind Speed Gust Speed Precip Events Conditions
12:15 AM 50.0 °F - 35.6 °F 58% 30.04 in 4.0 mi Calm Calm - N/A   Haze
12:35 AM 50.0 °F - 37.4 °F 62% 30.04 in 5.0 mi NNW 3.5 mph - N/A   Haze
12:55 AM 51.8 °F - 32.0 °F 47% 30.04 in 7.0 mi North 3.5 mph - N/A   Clear
1:15 AM 51.8 °F - 32.0 °F 47% 30.03 in 7.0 mi Calm Calm - N/A   Clear
1:35 AM 51.8 °F - 32.0 °F 47% 30.03 in 10.0 mi NNW 3.5 mph - N/A   Clear
1:55 AM 51.8 °F - 32.0 °F 47% 30.04 in 10.0 mi North 3.5 mph - N/A   Clear
2:15 AM 53.6 °F - 32.0 °F 44% 30.03 in 10.0 mi North 3.5 mph - N/A   Clear
2:35 AM 53.6 °F - 32.0 °F 44% 30.03 in 10.0 mi North 3.5 mph - N/A   Clear
2:55 AM 53.6 °F - 32.0 °F 44% 30.03 in 10.0 mi Calm Calm - N/A   Clear
3:15 AM 51.8 °F - 32.0 °F 47% 30.03 in 10.0 mi North 4.6 mph - N/A   Clear
3:35 AM 51.8 °F - 32.0 °F 47% 30.02 in 10.0 mi North 4.6 mph - N/A   Clear
3:55 AM 51.8 °F - 32.0 °F 47% 30.02 in 10.0 mi NNE 6.9 mph - N/A   Clear
4:15 AM 51.8 °F - 32.0 °F 47% 30.02 in 10.0 mi North 5.8 mph - N/A   Clear
4:35 AM 50.0 °F - 32.0 °F 50% 30.02 in 10.0 mi NNE 3.5 mph - N/A   Clear
4:55 AM 50.0 °F - 32.0 °F 50% 30.02 in 10.0 mi NNE 5.8 mph - N/A   Clear
5:15 AM 48.2 °F - 32.0 °F 54% 30.02 in 10.0 mi NNE 4.6 mph - N/A   Clear
5:35 AM 46.4 °F 44.3 °F 32.0 °F 57% 30.03 in 10.0 mi NNE 4.6 mph - N/A   Clear
5:55 AM 46.4 °F 44.3 °F 32.0 °F 57% 30.04 in 10.0 mi NNE 4.6 mph - N/A   Clear
6:15 AM 46.4 °F 44.3 °F 32.0 °F 57% 30.05 in 10.0 mi NNE 4.6 mph - N/A   Clear
6:35 AM 46.4 °F 45.2 °F 32.0 °F 57% 30.06 in 10.0 mi NNE 3.5 mph - N/A   Clear
6:55 AM 44.6 °F 42.2 °F 32.0 °F 61% 30.07 in 10.0 mi NNE 4.6 mph - N/A   Clear
7:15 AM 44.6 °F - 32.0 °F 61% 30.08 in 10.0 mi Calm Calm - N/A   Clear
7:35 AM 44.6 °F 43.1 °F 32.0 °F 61% 30.09 in 10.0 mi North 3.5 mph - N/A   Clear
7:55 AM 44.6 °F - 32.0 °F 61% 30.10 in 10.0 mi Calm Calm - N/A   Clear
8:15 AM 46.4 °F 44.3 °F 32.0 °F 57% 30.11 in 10.0 mi NNE 4.6 mph - N/A   Clear
8:35 AM 46.4 °F 45.2 °F 32.0 °F 57% 30.11 in 10.0 mi NE 3.5 mph - N/A   Clear
8:55 AM 48.2 °F - 30.2 °F 50% 30.12 in 10.0 mi NNE 5.8 mph - N/A   Clear
9:15 AM 50.0 °F - 28.4 °F 43% 30.12 in 10.0 mi NE 4.6 mph - N/A   Scattered Clouds
9:35 AM 51.8 °F - 28.4 °F 41% 30.13 in 10.0 mi NE 6.9 mph - N/A   Scattered Clouds
9:55 AM 51.8 °F - 28.4 °F 41% 30.13 in 10.0 mi ENE 6.9 mph - N/A   Mostly Cloudy
10:15 AM 53.6 °F - 26.6 °F 35% 30.13 in 10.0 mi East 5.8 mph - N/A   Scattered Clouds
10:35 AM 53.6 °F - 28.4 °F 38% 30.12 in 10.0 mi ENE 8.1 mph - N/A   Clear
10:55 AM 53.6 °F - 28.4 °F 38% 30.12 in 10.0 mi ENE 5.8 mph - N/A   Clear
11:15 AM 55.4 °F - 26.6 °F 33% 30.11 in 10.0 mi ENE 6.9 mph - N/A   Clear
11:35 AM 57.2 °F - 28.4 °F 33% 30.11 in 10.0 mi NNE 4.6 mph - N/A   Clear
11:55 AM 59.0 °F - 26.6 °F 29% 30.10 in 10.0 mi NE 6.9 mph - N/A   Clear
12:15 PM 59.0 °F - 26.6 °F 29% 30.09 in 10.0 mi ENE 4.6 mph - N/A   Clear
12:35 PM 59.0 °F - 26.6 °F 29% 30.08 in 10.0 mi SW 3.5 mph - N/A   Clear
12:55 PM 59.0 °F - 26.6 °F 29% 30.06 in 10.0 mi Calm Calm - N/A   Mostly Cloudy
1:15 PM 59.0 °F - 28.4 °F 31% 30.05 in 10.0 mi SE 3.5 mph - N/A   Overcast
1:35 PM 59.0 °F - 26.6 °F 29% 30.04 in 10.0 mi Calm Calm - N/A   Mostly Cloudy
1:55 PM 60.8 °F - 28.4 °F 29% 30.03 in 10.0 mi ESE 5.8 mph - N/A   Clear
2:15 PM 62.6 °F - 26.6 °F 26% 30.01 in 10.0 mi NE 4.6 mph - N/A   Clear
2:35 PM 60.8 °F - 26.6 °F 27% 30.00 in 10.0 mi Calm Calm - N/A   Scattered Clouds
2:55 PM 62.6 °F - 24.8 °F 24% 29.98 in 10.0 mi WNW 5.8 mph - N/A   Clear
3:15 PM 60.8 °F - 21.2 °F 22% 29.97 in 10.0 mi NNW 5.8 mph - N/A   Scattered Clouds
3:35 PM 62.6 °F - 26.6 °F 26% 29.96 in 10.0 mi NNW 8.1 mph - N/A   Scattered Clouds
3:55 PM 60.8 °F - 28.4 °F 29% 29.95 in 10.0 mi NW 4.6 mph - N/A   Scattered Clouds
4:15 PM 60.8 °F - 28.4 °F 29% 29.95 in 10.0 mi WNW 4.6 mph - N/A   Scattered Clouds
4:35 PM 60.8 °F - 28.4 °F 29% 29.94 in 10.0 mi NW 6.9 mph - N/A   Scattered Clouds
4:55 PM 60.8 °F - 28.4 °F 29% 29.94 in 10.0 mi WNW 4.6 mph - N/A   Clear
5:15 PM 62.6 °F - 28.4 °F 27% 29.94 in 10.0 mi WNW 4.6 mph - N/A   Clear
5:35 PM 60.8 °F - 28.4 °F 29% 29.93 in 10.0 mi West 4.6 mph - N/A   Clear
5:55 PM 60.8 °F - 30.2 °F 31% 29.92 in 10.0 mi West 3.5 mph - N/A   Clear
6:15 PM 60.8 °F - 30.2 °F 31% 29.91 in 10.0 mi West 3.5 mph - N/A   Clear
6:35 PM 60.8 °F - 30.2 °F 31% 29.91 in 10.0 mi West 6.9 mph - N/A   Clear
6:55 PM 59.0 °F - 32.0 °F 36% 29.91 in 10.0 mi Calm Calm - N/A   Clear
7:15 PM 59.0 °F - 33.8 °F 39% 29.90 in 10.0 mi WNW 3.5 mph - N/A   Clear
7:35 PM 55.4 °F - 33.8 °F 44% 29.90 in 10.0 mi Calm Calm - N/A   Clear
7:55 PM 51.8 °F - 37.4 °F 58% 29.90 in 10.0 mi Calm Calm - N/A   Clear
8:15 PM 50.0 °F - 37.4 °F 62% 29.90 in 10.0 mi WNW 3.5 mph - N/A   Clear
8:35 PM 46.4 °F - 37.4 °F 71% 29.90 in 10.0 mi Calm Calm - N/A   Clear
8:55 PM 44.6 °F - 37.4 °F 76% 29.90 in 10.0 mi Calm Calm - N/A   Clear
9:15 PM 46.4 °F - 41.0 °F 81% 29.90 in 10.0 mi Calm Calm - N/A   Clear
9:35 PM 42.8 °F 41.1 °F 35.6 °F 76% 29.90 in 10.0 mi NW 3.5 mph - N/A   Clear
9:55 PM 42.8 °F 41.1 °F 37.4 °F 81% 29.90 in 10.0 mi WNW 3.5 mph - N/A   Clear
10:15 PM 42.8 °F 40.1 °F 35.6 °F 76% 29.91 in 10.0 mi NW 4.6 mph - N/A   Clear
10:35 PM 44.6 °F 42.2 °F 33.8 °F 66% 29.91 in 10.0 mi NW 4.6 mph - N/A   Clear
10:55 PM 44.6 °F 41.4 °F 33.8 °F 66% 29.91 in 10.0 mi NW 5.8 mph - N/A   Clear
11:15 PM 42.8 °F 41.1 °F 33.8 °F 70% 29.91 in 10.0 mi NW 3.5 mph - N/A   Clear
11:35 PM 41.0 °F - 35.6 °F 81% 29.90 in 10.0 mi Calm Calm - N/A   Clear
11:55 PM 41.0 °F - 37.4 °F 87% 29.90 in 10.0 mi Calm Calm - N/A   Clear